TimeCDT,TemperatureF,Dew PointF,Humidity,Sea Level PressureIn,VisibilityMPH,Wind Direction,Wind SpeedMPH,Gust SpeedMPH,PrecipitationIn,Events,Conditions,WindDirDegrees,DateUTC
12:14 AM,23.0,19.4,86,30.02,7.0,NNW,18.4,27.6,N/A,,Overcast,340,2013-03-10 06:14:00
12:33 AM,23.0,19.4,86,30.03,7.0,NNW,19.6,-,N/A,,Overcast,340,2013-03-10 06:33:00
12:54 AM,21.2,19.4,93,30.03,7.0,NNW,19.6,26.5,N/A,,Overcast,340,2013-03-10 06:54:00
1:14 AM,21.2,19.4,93,30.04,7.0,NNW,19.6,24.2,N/A,,Overcast,340,2013-03-10 07:14:00
1:33 AM,21.2,19.4,93,30.05,10.0,NNW,19.6,24.2,N/A,,Overcast,340,2013-03-10 07:33:00
1:54 AM,21.2,19.4,93,30.06,10.0,NNW,18.4,23.0,N/A,,Overcast,340,2013-03-10 07:54:00
3:14 AM,21.2,19.4,93,30.06,10.0,North,18.4,-,N/A,,Overcast,350,2013-03-10 08:14:00
3:33 AM,21.2,19.4,93,30.05,10.0,NNW,17.3,-,N/A,,Overcast,340,2013-03-10 08:33:00
3:54 AM,21.2,19.4,93,30.06,10.0,NNW,17.3,-,N/A,,Overcast,340,2013-03-10 08:54:00
4:14 AM,21.2,17.6,86,30.06,10.0,NNW,17.3,-,N/A,,Overcast,340,2013-03-10 09:14:00
4:34 AM,21.2,17.6,86,30.07,10.0,NNW,15.0,-,N/A,,Overcast,330,2013-03-10 09:34:00
4:54 AM,19.4,17.6,93,30.08,10.0,NNW,15.0,-,N/A,,Overcast,330,2013-03-10 09:54:00
5:13 AM,19.4,15.8,86,30.09,10.0,NNW,13.8,21.9,N/A,,Overcast,330,2013-03-10 10:13:00
5:34 AM,17.6,15.8,93,30.10,10.0,NNW,18.4,21.9,N/A,,Overcast,340,2013-03-10 10:34:00
5:54 AM,17.6,15.8,93,30.11,10.0,NNW,18.4,-,N/A,,Overcast,340,2013-03-10 10:54:00
6:13 AM,17.6,15.8,93,30.12,10.0,NNW,15.0,-,N/A,,Overcast,330,2013-03-10 11:13:00
7:34 AM,17.6,15.8,93,30.16,10.0,NNW,20.7,26.5,N/A,,Overcast,340,2013-03-10 12:34:00
7:54 AM,17.6,14.0,86,30.17,7.0,NNW,19.6,24.2,N/A,,Overcast,340,2013-03-10 12:54:00
8:13 AM,15.8,14.0,93,30.18,10.0,NNW,17.3,-,N/A,,Overcast,340,2013-03-10 13:13:00
8:34 AM,15.8,12.2,86,30.19,7.0,NNW,17.3,23.0,N/A,,Overcast,340,2013-03-10 13:34:00
8:54 AM,14.0,10.4,86,30.20,10.0,NNW,15.0,-,N/A,,Overcast,340,2013-03-10 13:54:00
9:13 AM,12.2,10.4,92,30.21,7.0,NNW,11.5,-,N/A,,Overcast,330,2013-03-10 14:13:00
9:34 AM,12.2,8.6,85,30.21,10.0,NNW,15.0,-,N/A,,Scattered Clouds,340,2013-03-10 14:34:00
9:54 AM,12.2,8.6,85,30.22,5.0,NNW,16.1,20.7,N/A,,Scattered Clouds,340,2013-03-10 14:54:00
10:13 AM,12.2,8.6,85,30.22,7.0,NNW,16.1,-,N/A,,Scattered Clouds,340,2013-03-10 15:13:00
10:34 AM,12.2,8.6,85,30.23,7.0,NNW,17.3,20.7,N/A,,Clear,340,2013-03-10 15:34:00
10:53 AM,12.2,8.6,85,30.23,7.0,NNW,17.3,-,N/A,,Mostly Cloudy,340,2013-03-10 15:53:00
11:14 AM,12.2,8.6,85,30.23,7.0,NNW,19.6,-,N/A,,Mostly Cloudy,340,2013-03-10 16:14:00
11:34 AM,14.0,10.4,86,30.24,7.0,North,16.1,-,N/A,,Mostly Cloudy,350,2013-03-10 16:34:00
11:53 AM,14.0,10.4,86,30.24,10.0,North,13.8,-,N/A,,Mostly Cloudy,350,2013-03-10 16:53:00
12:14 PM,14.0,10.4,86,30.23,7.0,NNW,19.6,-,N/A,,Scattered Clouds,340,2013-03-10 17:14:00
12:34 PM,14.0,10.4,86,30.23,7.0,NNW,17.3,-,N/A,,Clear,340,2013-03-10 17:34:00
12:54 PM,15.8,10.4,79,30.23,10.0,NNW,18.4,-,N/A,,Clear,340,2013-03-10 17:54:00
1:14 PM,15.8,10.4,79,30.23,10.0,NNW,17.3,-,N/A,,Clear,340,2013-03-10 18:14:00
1:34 PM,15.8,10.4,79,30.22,10.0,NNW,19.6,-,N/A,,Clear,340,2013-03-10 18:34:00
1:54 PM,17.6,10.4,73,30.22,10.0,NNW,18.4,23.0,N/A,,Clear,340,2013-03-10 18:54:00
2:14 PM,17.6,10.4,73,30.20,10.0,NNW,21.9,-,N/A,,Clear,340,2013-03-10 19:14:00
2:34 PM,17.6,10.4,73,30.19,10.0,NNW,18.4,-,N/A,,Clear,340,2013-03-10 19:34:00
2:54 PM,17.6,10.4,73,30.17,10.0,NNW,18.4,-,N/A,,Clear,340,2013-03-10 19:54:00
3:14 PM,17.6,10.4,73,30.17,10.0,NNW,19.6,-,N/A,,Clear,340,2013-03-10 20:14:00
3:34 PM,17.6,12.2,79,30.19,10.0,NNW,20.7,24.2,N/A,,Clear,340,2013-03-10 20:34:00
3:54 PM,17.6,10.4,73,30.19,10.0,NNW,18.4,-,N/A,,Clear,340,2013-03-10 20:54:00
4:14 PM,17.6,10.4,73,30.19,10.0,NNW,18.4,23.0,N/A,,Clear,340,2013-03-10 21:14:00
4:34 PM,17.6,10.4,73,30.17,10.0,NNW,16.1,-,N/A,,Clear,340,2013-03-10 21:34:00
4:53 PM,17.6,10.4,73,30.18,10.0,NNW,15.0,-,N/A,,Clear,330,2013-03-10 21:53:00
5:14 PM,17.6,10.4,73,30.17,10.0,NNW,15.0,-,N/A,,Clear,340,2013-03-10 22:14:00
5:34 PM,17.6,10.4,73,30.18,10.0,NNW,13.8,-,N/A,,Clear,340,2013-03-10 22:34:00
5:53 PM,15.8,10.4,79,30.19,10.0,NNW,11.5,-,N/A,,Clear,330,2013-03-10 22:53:00
6:14 PM,15.8,10.4,79,30.19,10.0,NNW,10.4,-,N/A,,Clear,340,2013-03-10 23:14:00
6:33 PM,15.8,8.6,73,30.18,10.0,NNW,10.4,-,N/A,,Clear,340,2013-03-10 23:33:00
6:54 PM,14.0,8.6,79,30.18,10.0,NNW,9.2,-,N/A,,Clear,330,2013-03-10 23:54:00
7:14 PM,14.0,8.6,79,30.17,10.0,NNW,10.4,-,N/A,,Clear,330,2013-03-11 00:14:00
7:33 PM,12.2,6.8,79,30.17,10.0,NW,9.2,-,N/A,,Clear,320,2013-03-11 00:33:00
7:54 PM,10.4,6.8,85,30.17,10.0,NNW,9.2,-,N/A,,Clear,330,2013-03-11 00:54:00
8:14 PM,10.4,6.8,85,30.17,10.0,NNW,9.2,-,N/A,,Clear,330,2013-03-11 01:14:00
8:33 PM,10.4,6.8,85,30.16,10.0,NNW,10.4,-,N/A,,Clear,330,2013-03-11 01:33:00
9:14 PM,8.6,6.8,92,30.16,10.0,NNW,9.2,-,N/A,,Clear,340,2013-03-11 02:14:00
9:33 PM,8.6,5.0,85,30.15,10.0,NNW,10.4,-,N/A,,Clear,340,2013-03-11 02:33:00
9:54 PM,6.8,3.2,85,30.14,10.0,North,11.5,-,N/A,,Clear,350,2013-03-11 02:54:00
10:14 PM,8.6,6.8,92,30.14,10.0,North,10.4,-,N/A,,Clear,350,2013-03-11 03:14:00
10:33 PM,6.8,3.2,85,30.13,10.0,North,5.8,-,N/A,,Clear,360,2013-03-11 03:33:00
10:54 PM,3.2,1.4,92,30.13,10.0,Calm,Calm,-,N/A,,Clear,0,2013-03-11 03:54:00
11:14 PM,5.0,1.4,85,30.12,10.0,NE,3.5,-,N/A,,Clear,40,2013-03-11 04:14:00
11:33 PM,3.2,-0.4,85,30.11,10.0,Calm,Calm,-,N/A,,Clear,0,2013-03-11 04:33:00
11:54 PM,3.2,1.4,92,30.10,10.0,Calm,Calm,-,N/A,,Clear,0,2013-03-11 04:54:00
12:13 AM,5.0,1.4,85,30.09,10.0,Calm,Calm,-,N/A,,Clear,0,2013-03-11 05:13:00
12:34 AM,1.4,-0.4,92,30.08,10.0,Calm,Calm,-,N/A,,Clear,0,2013-03-11 05:34:00
12:54 AM,1.4,-0.4,92,30.09,10.0,WNW,4.6,-,N/A,,Clear,300,2013-03-11 05:54:00